Regional Weather Roundup
Issued by NWS

Home | Current Version | Previous Version | Graphics & Text | Print | Product List | Glossary On
Versions: 1 2 3 4 5 6 7 8 9 10 11 12 13 14 15 16 17 18 19 20 21 22 23 24 25 26 27 28 29 30 31 32 33 34 35 36 37 38 39 40 41 42 43 44 45 46 47 48 49 50
000
ASUS45 KCYS 202110
RWRWY

WYOMING REGIONAL WEATHER ROUNDUP
NATIONAL WEATHER SERVICE CHEYENNE WY
200 PM MST FRI JAN 20 2017

NOTE:  "FAIR" INDICATES FEW OR NO CLOUDS BELOW 12,000 FEET
WITH NO SIGNIFICANT WEATHER AND/OR OBSTRUCTIONS TO VISIBILITY.

WYZ001-202200-
YELLOWSTONE NATIONAL PARK

CITY           SKY/WX    TMP DP  RH WIND       PRES   REMARKS
LK YELLOWSTONE   N/A     26  19  74 CALM      29.41F
W YELLOWSTONE  NOT AVBL

$$
WYZ002>013-054>058-071-098>099-202200-
NORTHERN WYOMING

CITY           SKY/WX    TMP DP  RH WIND       PRES   REMARKS
JACKSON        MOSUNNY   25  21  86 CALM      29.43F
CODY           FAIR      30  23  75 NE9       29.38F WCI  22
GREYBULL       FAIR      35  27  72 E3        29.41F
WORLAND        FAIR      36  31  82 SE6       29.40F WCI  31
SHERIDAN       FAIR      39  33  79 CALM      29.39F
BUFFALO        CLOUDY    35  29  78 NW6       29.40F WCI  30
GILLETTE       CLOUDY    34  33  96 NW10      29.38F WCI  26
HULETT         CLOUDY    36  32  87 SW5       29.37F WCI  32
NEWCASTLE      MOCLDY    34  30  86 NW17G23   29.36S WCI  23

$$
WYZ014>020-022>026-101>103-202200-
CENTRAL WYOMING

CITY           SKY/WX    TMP DP  RH WIND       PRES   REMARKS
BIG PINEY      FAIR       8   3  80 CALM      29.46F
PINEDALE       FAIR      12  10  92 CALM      29.46F
DUBOIS         NOT AVBL
LANDER         FAIR      35  21  56 CALM      29.39F
RIVERTON       FAIR      27  18  69 N5        29.41F WCI  22
CASPER         PTSUNNY   34  29  82 MISG      29.40F
DOUGLAS        LGT SNOW  34  31  88 NW17      29.40S FOG     WCI  23

$$
WYZ021-027>030-104>119-202200-
SOUTHERN WYOMING

CITY           SKY/WX    TMP DP  RH WIND       PRES   REMARKS
EVANSTON       FAIR      25  19  78 W3        29.43F
FORT BRIDGER   CLEAR     30  21  69 E6        29.47  WCI  24
ROCK SPRINGS   PTSUNNY   25  19  80 NE3       29.47F FOG
RAWLINS        FAIR      28  17  63 SW16      29.46F WCI  16
LARAMIE        FAIR      30  20  66 W17       29.38F WCI  18
CHEYENNE       CLOUDY    38  20  48 NW16G24   29.36F WCI  29
TORRINGTON     CLOUDY    39  31  72 NW16      29.37S WCI  30

$$



USA.gov is the U.S. government's official web portal to all federal, state and local government web resources and services.